Location: *
(45.9500°N, 9.0833°E)
Time: 23:08:50
(UTC+00:00)

Tiros 1 despin weight - Pass Details

Date: 23 June 2021
Orbit: 593 x 642 km, 48.2° (Epoch: 02 August)

Event Time Altitude Azimuth Distance (km) Brightness Sun altitude
Rises 08:10:42 0° 287° (WNW) 2,828 ? 44.9°
Reaches altitude 10° 08:12:59 10° 287° (WNW) 1,925 ? 45.3°
Maximum altitude 08:17:24 86° 200° (SSW) 600 ? 46.0°
Drops below altitude 10° 08:21:50 10° 111° (ESE) 1,932 ? 46.8°
Sets 08:24:08 0° 111° (ESE) 2,838 ? 47.2°
